Wind_Speed
74 73 65 64 68 75 89 94 90 88 92 85 81 82 80 72 67 65 63 61 58 57 54 52 50 48 46 44 42 40 36 34 34 34 33 35 39 39 40 40 40 42 40 43
79 67 74 76 74 73 84 92 93 90 89 91 86 84 85 75 71 70 68 64 61 59 55 55 53 52 50 48 46 44 43 42 41 39 38 41 42 42 42 42 43 43 39 45
79 79 86 83 80 77 73 88 95 97 94 93 93 86 86 82 77 75 71 70 66 64 61 59 57 56 53 53 51 48 47 46 46 45 44 45 44 45 45 46 44 41 39 44
83 85 87 85 80 79 74 76 94 100 99 98 97 90 86 85 80 76 75 72 72 71 68 63 60 58 60 60 56 52 50 49 49 47 48 47 47 49 46 45 44 43 49 45
76 88 90 90 79 83 77 80 85 103 106 104 98 93 84 84 80 78 79 79 78 76 72 67 63 64 63 62 59 54 53 51 51 51 52 51 50 46 47 45 46 51 53 51
89 91 98 91 94 94 93 90 88 92 108 107 91 95 82 84 80 84 84 83 83 79 74 72 69 67 67 66 62 60 59 56 55 53 51 48 45 45 47 51 54 56 53 54
88 87 92 97 97 99 95 92 90 92 96 101 96 97 78 82 84 86 87 86 84 82 80 77 75 73 72 70 68 65 59 57 56 54 53 52 52 54 57 58 58 53 56 55
102 99 94 98 97 98 98 98 92 85 80 80 99 93 86 80 83 84 90 90 86 85 84 82 79 77 76 74 71 69 68 67 64 64 63 62 60 59 59 59 57 57 54 58
112 97 95 102 109 109 105 103 94 97 90 86 90 92 93 87 86 91 92 91 89 88 86 85 83 81 80 78 77 75 73 72 70 70 69 67 65 63 63 59 59 57 58 64
121 110 104 109 113 117 110 105 110 105 94 85 75 75 89 98 96 93 92 90 91 86 87 87 86 84 82 82 81 79 77 77 74 73 72 69 68 62 59 60 59 59 63 60
128 123 113 113 113 105 109 113 107 104 99 90 78 70 74 93 107 100 94 93 92 90 88 87 85 85 84 83 82 81 79 78 76 74 69 64 62 60 60 60 61 61 61 61
127 125 123 116 111 115 118 116 113 113 101 90 83 75 75 78 97 110 102 98 94 95 94 90 86 85 83 83 82 81 79 77 74 71 67 65 64 63 62 61 61 62 63 65
127 129 131 126 122 120 116 111 109 107 106 103 94 83 81 80 85 97 108 107 102 96 95 97 95 91 88 85 82 80 79 76 73 70 67 64 63 63 62 62 63 64 68 69
129 132 135 128 117 113 108 112 112 112 113 97 93 89 87 84 84 85 90 102 106 104 99 94 92 92 92 88 85 82 80 78 75 72 70 68 68 67 66 67 69 70 71 70
123 130 135 133 131 125 119 119 121 119 106 108 93 96 94 90 88 89 86 91 96 102 102 103 99 96 93 91 90 88 85 82 79 75 74 72 72 72 72 73 74 74 74 74
117 126 128 134 136 130 125 120 121 121 113 110 104 99 99 96 93 90 90 88 87 89 93 98 98 99 99 96 92 92 89 87 85 83 82 80 80 79 78 78 77 77 78 77
110 120 127 138 142 137 130 125 123 118 115 108 107 101 102 101 98 98 98 95 91 89 85 82 82 86 89 94 95 96 96 93 91 88 86 84 83 82 83 82 84 81 78 82
111 116 125 135 140 142 135 128 121 117 115 113 108 107 105 103 104 104 104 100 96 92 88 83 80 79 79 81 84 86 87 89 92 94 92 89 83 80 81 82 85 81 72 60
112 117 122 131 134 139 138 132 125 122 120 116 112 111 108 106 105 105 106 106 100 95 91 86 81 78 76 74 70 69 70 72 75 77 78 79 77 68 67 67 64 51 45 44
109 114 119 125 131 138 139 135 129 121 120 122 116 112 111 110 107 106 107 107 106 101 95 90 84 78 74 72 70 67 65 64 61 59 58 57 56 52 48 41 37 40 40 35
107 115 118 123 127 130 136 135 131 126 125 124 120 115 113 113 112 111 111 110 107 103 97 90 87 81 76 71 69 67 66 63 59 57 52 51 47 45 38 35 39 38 36 35
100 112 116 120 123 127 134 138 135 133 130 130 125 122 116 116 116 116 114 109 107 107 101 95 91 86 81 74 70 67 65 61 57 54 51 50 44 40 38 38 38 38 39 41
94 103 115 117 119 125 133 138 139 136 134 132 131 126 123 122 120 117 115 112 108 107 105 99 96 93 88 81 76 73 67 63 60 57 54 51 47 42 42 43 45 45 46 45
93 99 106 114 112 118 130 133 140 140 137 135 132 131 129 127 125 122 119 117 114 111 109 104 99 96 93 87 83 78 73 69 65 63 60 55 52 48 47 48 50 50 50 50
90 94 103 108 108 117 124 132 139 143 143 141 139 136 135 134 130 128 125 121 119 116 112 108 102 99 96 91 87 83 79 75 72 68 65 61 58 55 53 52 53 54 54 54
88 91 97 97 99 110 119 124 132 136 141 141 141 141 140 138 135 132 130 126 121 117 113 109 105 101 100 99 95 90 86 82 78 75 72 68 63 61 59 58 59 59 59 58
Wind_Direction
230 227 225 226 224 220 217 217 219 224 225 223 222 223 228 222 224 227 228 229 231 235 238 240 241 242 244 244 248 250 251 256 259 266 273 276 280 287 294 302 310 315 322 327
228 223 225 225 225 222 221 219 220 223 226 224 224 224 229 223 223 225 228 228 231 234 237 239 241 242 241 242 244 246 250 254 259 262 267 273 280 285 293 300 306 315 321 319
227 222 225 223 224 223 223 221 221 221 223 224 225 224 228 224 222 224 227 230 231 233 234 237 239 242 243 240 243 248 251 253 257 261 265 273 278 285 291 297 307 312 315 314
227 222 223 222 224 225 223 225 223 223 222 222 224 223 227 228 224 226 228 230 233 234 234 232 237 239 240 240 242 246 250 255 259 263 266 270 276 282 292 301 305 308 306 310
228 225 220 222 222 226 222 227 225 224 222 221 222 223 227 231 227 230 232 232 233 235 237 237 236 238 240 243 244 246 250 253 256 259 265 271 279 289 294 295 295 297 303 308
229 224 223 217 221 223 222 224 223 225 223 221 223 222 224 230 230 231 233 234 235 236 237 238 238 239 241 242 244 247 250 255 259 263 270 278 285 285 286 285 291 293 300 306
237 229 225 221 222 225 224 224 225 225 226 221 222 222 216 229 228 230 233 235 236 238 238 238 239 240 243 244 245 246 250 255 259 262 266 270 273 276 282 284 290 298 302 303
233 228 223 224 223 226 226 227 227 229 227 226 224 222 216 227 232 232 234 234 235 237 240 241 242 242 243 246 247 249 251 252 257 262 266 270 274 279 284 289 293 296 298 300
234 234 229 222 221 223 226 225 227 227 224 222 222 222 216 221 228 231 232 233 235 237 239 241 243 244 246 248 249 250 252 255 258 261 265 270 274 279 284 286 288 291 294 299
230 230 226 223 223 223 224 223 224 226 223 221 218 219 223 220 227 230 233 234 233 235 238 240 242 243 246 248 250 252 254 256 259 263 266 270 274 278 279 281 285 288 291 296
230 229 227 225 225 225 226 226 228 227 225 221 216 216 219 223 224 230 231 235 235 233 235 238 240 241 242 245 249 252 255 258 260 263 267 270 271 273 274 277 281 285 290 293
229 230 227 224 224 223 223 225 225 225 224 225 220 219 223 225 227 228 232 232 233 236 235 234 237 239 242 245 249 252 254 256 259 262 264 266 268 270 272 275 279 283 287 290
225 227 225 223 223 223 224 225 226 227 226 223 220 217 222 226 227 229 231 233 234 234 237 239 240 241 243 245 247 250 252 254 256 258 260 263 265 267 270 274 277 281 285 290
221 222 223 225 225 224 226 227 227 226 227 224 224 222 226 226 229 230 232 234 235 235 235 237 240 242 243 244 246 248 250 252 254 256 258 260 263 266 269 272 276 280 285 289
218 220 221 222 222 222 222 223 223 225 224 226 222 221 223 227 229 233 233 234 237 238 237 237 238 240 242 244 246 247 249 250 252 254 257 260 264 267 270 273 277 281 284 288
218 220 220 220 222 222 221 224 225 225 222 222 220 221 223 226 229 231 234 235 236 237 240 240 240 241 242 243 245 247 249 251 252 254 257 260 262 265 269 272 276 278 283 288
218 218 219 220 219 222 222 223 225 224 224 224 223 223 223 225 229 230 232 233 234 236 238 241 243 243 243 246 246 248 249 250 252 254 256 259 262 265 267 271 276 278 281 283
219 218 218 219 220 221 223 222 224 224 224 224 224 224 226 226 227 229 230 232 234 237 238 239 242 243 244 245 248 252 256 258 258 259 261 263 266 268 269 270 274 278 281 282
218 218 219 219 220 221 223 222 223 223 222 223 223 224 227 229 229 231 231 231 233 235 238 239 240 243 245 247 249 250 252 254 257 260 262 265 267 267 267 268 271 271 271 271
219 219 218 220 220 220 222 222 223 223 223 223 222 223 225 227 228 230 231 232 233 234 236 238 240 240 243 246 248 250 252 253 253 255 258 260 260 260 258 256 258 259 259 259
219 219 219 220 220 220 221 223 223 222 223 224 224 223 224 226 227 229 230 230 231 234 235 237 240 240 241 243 245 247 251 254 256 257 258 259 257 258 253 248 246 247 249 255
220 220 221 219 219 219 220 221 221 222 222 225 223 223 224 227 228 228 230 232 231 231 232 233 236 238 238 240 242 246 248 251 252 252 252 254 252 253 246 241 237 242 246 252
223 221 222 222 219 218 219 220 221 221 221 223 225 224 225 226 228 229 231 230 231 231 230 232 234 236 237 236 238 241 244 245 247 248 250 251 249 248 245 238 237 241 244 249
224 223 223 223 221 219 221 221 221 221 221 221 223 226 226 227 228 229 230 231 230 231 229 231 233 235 237 237 237 239 240 243 245 246 247 248 249 249 244 242 241 244 246 249
231 226 225 223 220 220 222 221 222 223 222 221 221 224 226 227 228 229 231 231 231 231 230 231 233 234 236 237 237 239 240 241 243 246 247 246 246 244 245 245 246 248 252 254
232 232 232 228 220 219 223 223 224 224 224 224 224 224 225 227 228 228 230 231 233 233 232 232 233 234 237 237 237 237 238 239 240 242 244 245 245 244 243 244 247 250 253 257
Height
10549 10558 10582 10583 10582 10587 10592 10605 10616 10626 10638 10657 10670 10670 10676 10694 10706 10712 10717 10723 10730 10734 10741 10748 10754 10758 10762 10765 10768 10771 10775 10776 10778 10779 10780 10778 10777 10777 10776 10776 10774 10773 10769 10765
10527 10553 10553 10553 10560 10572 10581 10593 10603 10609 10624 10640 10650 10659 10658 10683 10692 10697 10702 10711 10718 10723 10732 10737 10743 10748 10752 10756 10759 10763 10765 10768 10770 10771 10771 10771 10771 10770 10770 10770 10768 10767 10764 10760
10509 10527 10524 10530 10539 10552 10563 10576 10582 10589 10600 10617 10630 10645 10647 10665 10676 10683 10693 10699 10706 10711 10718 10724 10732 10736 10742 10746 10750 10754 10758 10760 10761 10762 10763 10763 10764 10763 10763 10763 10762 10760 10759 10756
10482 10498 10505 10515 10529 10538 10549 10556 10562 10570 10580 10598 10611 10632 10638 10650 10668 10677 10680 10688 10691 10694 10702 10712 10720 10727 10729 10733 10741 10745 10748 10751 10752 10754 10754 10756 10758 10757 10756 10755 10755 10754 10753 10750
10479 10477 10484 10496 10522 10516 10533 10528 10534 10540 10556 10573 10597 10619 10634 10638 10661 10666 10666 10669 10674 10679 10689 10702 10710 10713 10717 10724 10729 10735 10738 10740 10742 10745 10745 10749 10751 10750 10748 10747 10747 10748 10746 10741
10433 10446 10451 10480 10478 10484 10493 10498 10509 10517 10532 10554 10587 10602 10624 10630 10645 10644 10648 10652 10659 10668 10678 10685 10695 10700 10703 10710 10718 10722 10726 10729 10732 10734 10736 10740 10742 10741 10740 10739 10740 10739 10737 10734
10410 10426 10443 10450 10458 10464 10480 10490 10493 10502 10520 10564 10568 10582 10629 10610 10617 10625 10628 10638 10647 10654 10662 10668 10678 10686 10689 10697 10705 10711 10718 10720 10723 10725 10728 10733 10735 10734 10733 10731 10730 10729 10729 10727
10372 10390 10420 10435 10448 10456 10462 10465 10482 10496 10518 10538 10548 10576 10612 10600 10601 10608 10609 10616 10630 10637 10646 10654 10664 10673 10678 10684 10693 10699 10705 10708 10712 10714 10718 10722 10725 10725 10723 10721 10719 10719 10720 10718
10346 10375 10390 10404 10407 10414 10431 10443 10471 10465 10484 10505 10531 10558 10574 10580 10576 10577 10582 10599 10614 10623 10631 10640 10649 10657 10665 10671 10678 10685 10692 10696 10700 10703 10708 10712 10713 10714 10714 10711 10709 10709 10710 10711
10312 10341 10360 10369 10374 10381 10407 10431 10418 10436 10467 10492 10520 10539 10558 10560 10553 10559 10567 10582 10596 10611 10615 10623 10632 10640 10648 10655 10662 10670 10677 10682 10688 10692 10696 10701 10702 10704 10702 10700 10700 10700 10701 10701
10281 10306 10330 10332 10352 10391 10396 10395 10419 10434 10449 10476 10504 10523 10524 10530 10538 10541 10553 10560 10576 10589 10597 10606 10615 10623 10631 10638 10646 10654 10662 10668 10673 10678 10683 10688 10689 10692 10691 10691 10691 10690 10691 10690
10261 10285 10296 10317 10336 10345 10353 10374 10388 10396 10439 10470 10491 10505 10510 10516 10522 10527 10532 10543 10552 10564 10576 10585 10595 10606 10616 10623 10631 10639 10647 10654 10659 10665 10670 10674 10677 10679 10679 10680 10680 10680 10680 10680
10227 10250 10265 10285 10295 10310 10337 10368 10388 10402 10416 10433 10459 10484 10485 10492 10496 10504 10508 10516 10530 10545 10557 10568 10581 10593 10601 10609 10616 10623 10630 10638 10645 10651 10656 10660 10663 10665 10667 10669 10669 10670 10668 10668
10188 10219 10238 10267 10304 10311 10330 10343 10361 10376 10382 10434 10452 10462 10467 10475 10479 10484 10490 10496 10508 10523 10538 10552 10562 10572 10583 10591 10598 10605 10613 10621 10629 10636 10641 10645 10648 10651 10655 10657 10657 10658 10657 10656
10163 10185 10210 10239 10258 10274 10293 10305 10321 10333 10384 10388 10433 10435 10443 10453 10460 10464 10474 10479 10486 10501 10517 10530 10540 10551 10561 10571 10579 10588 10597 10605 10613 10620 10625 10630 10635 10639 10642 10643 10644 10645 10645 10646
10142 10160 10190 10215 10227 10249 10268 10285 10297 10319 10350 10365 10393 10409 10419 10432 10442 10451 10454 10462 10471 10479 10489 10503 10520 10533 10544 10554 10562 10571 10581 10589 10597 10605 10611 10617 10622 10626 10629 10631 10632 10632 10632 10633
10121 10139 10163 10180 10197 10219 10240 10262 10277 10311 10330 10360 10373 10393 10400 10409 10421 10429 10429 10438 10450 10461 10475 10487 10499 10512 10523 10534 10544 10551 10561 10571 10579 10587 10595 10601 10606 10610 10613 10616 10617 10617 10618 10619
10099 10116 10130 10149 10175 10194 10219 10241 10267 10293 10312 10331 10356 10368 10379 10388 10395 10403 10411 10421 10434 10445 10459 10472 10483 10493 10504 10514 10525 10533 10540 10548 10558 10567 10575 10581 10587 10592 10596 10599 10600 10603 10603 10605
10070 10088 10108 10128 10154 10175 10201 10221 10242 10265 10290 10305 10326 10340 10355 10366 10377 10386 10395 10403 10416 10428 10440 10456 10470 10480 10492 10502 10510 10518 10526 10534 10541 10547 10554 10562 10569 10574 10577 10580 10584 10586 10588 10591
10049 10067 10088 10109 10127 10150 10173 10198 10221 10252 10271 10276 10296 10314 10329 10341 10355 10364 10374 10386 10399 10412 10425 10438 10452 10467 10478 10487 10495 10503 10509 10517 10525 10532 10540 10547 10552 10557 10561 10565 10568 10572 10575 10578
10028 10041 10063 10076 10104 10134 10152 10175 10200 10229 10242 10251 10276 10293 10305 10318 10328 10333 10344 10360 10379 10394 10409 10424 10433 10449 10462 10471 10479 10486 10491 10501 10510 10517 10524 10531 10537 10542 10547 10551 10555 10558 10563 10566
10009 10020 10039 10057 10080 10113 10126 10147 10175 10195 10211 10223 10246 10262 10281 10294 10301 10310 10322 10342 10358 10374 10388 10404 10414 10427 10442 10454 10463 10469 10476 10486 10494 10503 10510 10516 10523 10529 10533 10537 10543 10547 10552 10554
9990 10003 10011 10031 10058 10082 10093 10119 10138 10166 10186 10205 10218 10239 10255 10263 10274 10288 10304 10321 10333 10352 10369 10383 10396 10406 10419 10434 10444 10451 10464 10472 10479 10486 10494 10502 10510 10517 10521 10526 10531 10535 10539 10541
9963 9979 9994 10008 10045 10064 10071 10093 10110 10133 10157 10179 10196 10214 10227 10237 10253 10266 10279 10292 10308 10326 10345 10361 10375 10387 10400 10414 10426 10436 10447 10455 10463 10471 10479 10488 10495 10502 10508 10514 10518 10522 10525 10528
9945 9958 9969 9985 10022 10035 10044 10061 10076 10096 10120 10144 10162 10174 10189 10204 10222 10237 10252 10266 10280 10301 10322 10341 10356 10368 10380 10393 10406 10417 10428 10438 10446 10455 10463 10471 10478 10486 10493 10499 10504 10508 10511 10514
9928 9936 9943 9966 9997 10012 10024 10040 10054 10070 10091 10115 10137 10153 10163 10176 10193 10210 10225 10245 10263 10281 10303 10324 10339 10351 10360 10371 10383 10395 10406 10417 10427 10436 10445 10453 10462 10469 10477 10483 10488 10492 10496 10500